Location: Eschentzwiller
(47.7125°N, 7.3981°E)
Time: 03:11:59
(UTC+00:00)

GEOS 3 Rocket - Pass Details

Date: 27 October 2020
Orbit: 770 x 850 km, 115.0° (Epoch: 01 December)

Event Time Altitude Azimuth Distance (km) Brightness Sun altitude
Exits shadow 17:24:32 13° 102° (ESE) 2,225 5.3 -11.4°
Maximum altitude 17:28:52 40° 37° (NE) 1,225 4.2 -12.1°
Drops below altitude 10° 17:33:52 10° 330° (NNW) 2,481 6.5 -12.9°
Sets 17:36:19 0° 323° (NW) 3,422 7.3 -13.3°
